SCP
-0 0 -0 -0 -0 0 0 0 0 0 0 -0 -0 -0 -0 -0 0 0 -0 -0 0 0 0 -0 0 0 0 -0 -0 -0 0 -0 -0 0 0 0 0 0 0 0 0 0 0 0 0 0 0 0 0
0 0 -0 0 0 0 0 0 0 -0 0 -0 -0 -0 -0 0 0 -0 -0 -0 -0 -0 -0 -0 0 0 0 0 0 0 0 0 0 0 0 0 0 0 0 0 0 0 0 0 0 0 0 0 0
-0 -0 0 -0 -0 -0 0 0 -0 0 0 -0 -0 -0 0 0 0 -0 -0 -0 -0 -0 -0 -0 0 0 0 0 0 0 0 0 0 0 0 0 0 0 0 0 0 0 0 0 0 0 0 0 0
0 -0 0 -0 -0 -0 -0 0 -0 -0 -0 -0 -0 -0 0 -0 -0 -0 -0 0 0 0 0 0 0 0 0 0 0 0 0 0 0 0 0 0 0 0 0 0 0 0 0 0 0 0 0 0 0
0 0 0 -0 -0 -0 -0 0 0 0 0 -0 -0 -0 0 -0 -0 -0 -0 0 0 0 0 0 0 0 0 0 0 0 0 0 0 0 0 0 0 0 0 0 0 0 0 0 0 0 0 0 0
0 0 0 -0 -0 0 0 0 0 0 -0 -0 -0 -0 0 -0 -0 0 0 0 0 0 0 -0 0 0 0 0 0 0 0 0 0 0 0 0 0 0 0 0 0 0 0 0 0 0 0 0 0
0 -0 0 -0 -0 0 0 0 0 -0 0 0 -0 0 0 0 0 0 0 0 0 0 0 0 0 0 0 0 0 0 0 0 -0 0 0 0 0 0 0 0 0 0 0 0 0 0 0 0 0
-0 -0 -0 -0 0 0 0 0 -0 0 0 0 -0 0 0 0 0 0 0 0 0 0 0 0 0 0 0 0 0 0 0 0 0 0 0 0 0 0 0 0 0 0 0 0 0 0 0 0 0
0 -0 -0 -0 0 0 0 0 0 0 0 0 0 0 0 0 0 0 0 0 0 0 0 0 0 0 0 0 0 0 0 0 0 0 0 0 0 0 0 0 0 0 0 0 0 0 0 0 0
0 0 -0 -0 0 0 0 0 0 0 0 0 0 0 0 0 0 0 0 0 0 0 0 0 0 0 0 0 0 0 0 0 0 0 0 0 0 0 0 0 0 0 0 0 0 0 0 0 0
0 -0 -0 -0 0 0 0 0 0 0 0 0 -0 0 0 0 0 0 0 0 0 0 0 0 0 0 0 0 0 0 0 0 0 0 0 0 0 0 0 0 0 0 0 0 0 0 0 0 0
0 -0 -0 -0 0 0 0 0 0 0 0 0 0 0 0 0 0 0 0 0 0 0 0 0 0 0 0 0 0 0 0 0 0 0 0 0 0 0 0 0 0 0 0 0 0 0 0 0 0
0 -0 -0 0 0 0 0 0 0 0 0 0 0 0 0 0 0 0 0 0 0 0 0 0 0 0 0 0 0 0 0 0 0 0 0 0 0 0 0 0 0 0 0 0 0 0 0 0 0
0 0 0 0 0 0 0 0 0 0 0 0 0 0 0 0 0 0 0 0 0 0 0 0 0 0 0 0 0 0 0 0 0 0 0 0 0 0 0 0 0 0 0 0 0 0 0 0 0
0 0 0 0 0 0 0 0 0 0 0 0 0 0 0 0 0 0 0 0 0 0 0 0 0 0 0 0 0 0 0 0 0 0 0 0 0 0 0 0 0 0 0 0 0 0 0 0 0
0 0 0 0 -0 0 0 0 0 0 0 0 0 0 0 0 0 0 0 0 0 0 0 0 0 0 0 0 0 0 0 0 0 0 0 0 0 0 0 0 0 0 0 0 0 0 0 0 0
0 0 0 -0 0 0 0 0 0 0 0 0 0 0 0 0 0 0 0 0 0 0 0 0 0 0 0 0 0 0 0 0 0 0 0 0 0 0 0 0 0 0 0 0 0 0 0 0 0
0 0 0 -0 0 0 0 0 0 0 0 0 0 0 0 0 0 0 0 0 0 0 0 0 0 0 0 0 0 0 0 0 0 0 0 0 0 0 0 0 0 0 0 0 0 0 0 0 0
0 0 0 0 0 0 0 0 0 0 0 0 0 0 0 0 0 0 0 0 0 0 0 0 0 0 0 0 0 0 0 0 0 0 0 0 0 0 0 0 0 0 0 0 0 0 0 0 0
0 0 0 -0 0 0 0 0 0 0 0 0 0 0 0 0 0 0 0 0 0 0 0 0 0 0 0 0 0 0 0 0 0 0 0 0 0 0 0 0 0 0 0 0 0 0 0 0 0
0 0 0 0 0 0 0 0 0 0 0 0 0 0 0 0 0 0 0 0 0 0 0 0 0 0 0 0 0 0 0 0 0 0 0 0 0 0 0 0 0 0 0 0 0 0 0 0 0
0 0 0 0 0 0 0 0 0 0 0 0 0 0 0 0 0 0 0 0 0 0 0 0 0 0 0 0 0 0 0 0 0 0 0 0 0 0 0 0 0 0 0 0 0 0 0 0 0
0 0 0 0 0 0 0 0 0 0 0 0 0 0 0 0 0 0 0 0 0 0 0 0 0 0 0 0 0 0 0 0 0 0 0 0 0 0 0 0 0 0 0 0 0 0 0 0 0
0 0 0 0 0 0 0 0 0 0 0 0 0 0 0 0 0 0 0 0 0 0 0 0 0 0 0 0 0 0 0 0 0 0 0 0 0 0 0 0 0 0 0 0 0 0 0 0 0
0 0 0 0 0 0 0 0 0 0 0 0 0 0 0 0 0 0 0 0 0 0 0 0 0 0 0 0 0 0 0 0 0 0 0 0 0 0 0 0 0 0 0 0 0 0 0 0 0
0 0 0 0 0 0 0 0 0 0 0 0 0 0 0 0 0 0 0 0 0 0 0 0 0 0 0 0 0 0 0 0 0 0 0 0 0 0 0 0 0 0 0 0 0 0 0 0 0
0 0 0 0 0 0 0 0 0 0 0 0 0 0 0 0 0 0 0 0 0 0 0 0 0 0 0 0 0 0 0 0 0 0 0 0 0 0 0 0 0 0 0 0 0 0 0 0 0
0 0 0 0 0 0 0 0 0 0 0 0 0 0 0 0 0 0 0 0 0 0 0 0 0 0 0 0 0 0 0 0 0 0 0 0 0 0 0 0 0 0 0 0 0 0 0 0 0
0 0 0 0 0 0 0 0 0 0 0 0 0 0 0 0 0 0 0 0 0 0 0 0 0 0 0 0 0 0 0 0 0 0 0 0 0 0 0 0 0 0 0 0 0 0 0 0 0
0 0 0 0 0 0 0 0 0 0 0 0 0 0 0 0 0 0 0 0 0 0 0 0 0 0 0 0 0 0 0 0 0 0 0 0 0 0 0 0 0 0 0 0 0 0 0 0 0
Wind_Speed_500mb
15 15 8 12 11 9 3 10 5 15 8 15 22 24 23 18 5 6 31 25 28 31 30 21 13 6 3 5 8 10 13 11 9 9 7 7 4 3 2 1 1 3 5 7 8 9 10 9 10
9 8 20 13 10 5 3 10 15 17 37 52 42 30 26 9 16 31 33 31 29 30 27 21 14 8 4 3 9 10 9 7 6 5 5 4 4 3 3 4 5 6 8 10 12 12 11 12 12
21 16 10 8 7 8 7 15 23 46 49 15 17 22 9 10 29 35 32 36 31 31 26 20 14 8 3 5 7 7 6 6 5 5 6 7 8 8 8 9 9 10 12 15 17 18 18 17 16
10 7 13 8 10 6 6 11 41 28 27 26 35 19 12 11 25 33 39 36 32 28 24 17 12 8 7 7 8 11 13 12 11 10 9 9 10 12 13 13 16 17 18 18 21 21 22 23 23
11 11 9 7 4 7 7 32 27 14 15 16 9 10 8 18 31 37 35 31 27 24 19 16 13 9 7 9 13 18 19 19 18 15 14 14 15 15 15 14 16 18 22 24 25 24 24 26 26
11 8 9 5 7 5 7 33 32 22 30 36 31 20 8 37 39 37 30 23 24 24 23 18 12 9 7 10 18 27 25 21 18 16 14 11 9 9 11 13 15 21 23 23 24 26 28 28 28
12 7 5 4 12 6 17 35 25 29 26 12 39 10 29 39 36 33 30 30 29 25 19 15 10 8 11 12 20 25 26 24 23 15 8 6 3 9 11 16 21 26 30 23 19 15 15 22 30
13 9 1 4 9 9 8 29 38 30 13 39 27 16 20 50 38 34 31 29 27 25 17 12 4 1 5 6 20 17 20 22 24 18 8 8 7 10 15 25 20 21 19 20 17 16 17 14 13
10 6 6 9 12 11 26 12 12 17 32 10 10 33 44 53 52 49 41 31 28 26 16 8 4 1 3 8 12 15 14 15 18 19 7 14 17 17 12 15 21 14 12 16 15 15 18 13 13
7 2 10 10 11 13 27 26 25 13 19 19 41 49 54 57 59 49 47 43 35 31 22 14 12 6 7 6 8 12 4 9 14 15 16 21 16 13 14 18 22 11 16 14 16 16 18 15 19
4 10 8 28 27 44 32 29 8 37 8 28 64 49 47 61 56 55 50 44 39 31 22 13 7 2 3 6 17 16 11 10 10 12 22 20 21 24 29 24 25 16 13 19 21 21 26 28 27
3 16 13 33 40 32 13 18 16 4 15 39 61 53 54 62 61 60 49 40 38 26 25 12 6 4 9 11 6 19 14 17 19 23 23 25 30 33 26 21 8 10 12 17 26 31 25 21 9
12 10 9 18 18 34 40 25 22 34 49 57 48 47 49 49 47 44 42 37 31 34 25 19 12 6 11 16 15 7 5 16 19 22 23 27 29 35 22 16 14 17 14 21 29 27 12 16 19
21 16 19 19 24 27 34 29 14 20 55 51 44 40 40 42 40 37 41 38 45 35 31 27 21 16 16 17 22 18 9 15 21 21 24 24 32 32 26 20 16 17 11 21 29 23 24 26 28
14 10 5 5 5 10 42 2 10 61 58 50 41 34 32 36 35 35 37 38 41 43 36 33 29 23 20 20 23 17 12 14 18 19 24 28 32 27 32 35 31 25 16 23 32 21 28 32 35
7 11 6 15 13 16 18 8 32 54 52 47 40 35 37 35 32 33 35 34 38 43 43 34 32 29 28 28 22 19 17 21 24 26 24 25 26 25 38 43 28 30 28 24 22 24 31 40 42
12 7 9 16 10 12 6 9 36 50 44 49 45 44 38 31 28 30 31 38 37 44 48 42 36 39 32 38 35 26 23 27 26 24 28 28 29 34 39 41 25 28 27 27 25 28 34 40 37
11 8 7 13 9 19 12 7 35 38 34 45 43 40 40 30 19 21 17 22 32 39 44 46 41 44 39 48 51 41 38 30 29 36 26 31 32 37 35 33 26 31 28 29 29 38 35 42 37
13 10 14 13 16 5 15 17 28 54 44 32 40 46 48 32 15 26 25 25 25 27 33 36 39 51 38 46 63 56 51 40 29 37 32 37 39 39 44 35 30 26 31 34 40 32 38 35 34
17 7 11 18 6 9 16 19 6 25 19 20 33 51 53 42 28 27 30 27 21 16 23 33 40 46 44 39 52 55 48 38 34 31 40 44 45 44 36 31 35 33 34 32 36 30 31 35 33
5 13 8 15 18 19 27 11 3 4 16 22 26 49 50 50 31 31 37 32 20 26 21 30 32 33 34 41 42 42 43 43 46 34 36 36 40 44 40 37 37 38 36 38 35 32 34 34 28
7 6 5 13 8 7 18 7 5 5 11 17 23 37 45 33 19 24 24 20 15 17 19 19 16 16 14 21 33 34 50 45 47 40 43 45 48 48 44 50 37 35 35 38 33 34 29 31 30
13 12 4 7 7 7 6 11 5 6 12 15 9 9 27 16 13 12 6 4 6 5 3 1 4 8 12 15 21 30 39 56 53 48 46 43 45 50 47 32 30 30 31 31 35 30 27 28 27
9 3 14 12 8 7 8 10 8 10 12 9 17 29 29 18 18 15 8 11 13 5 3 4 2 5 4 12 19 23 31 36 47 52 57 55 43 43 37 33 34 29 26 29 27 23 24 21 24
16 13 8 10 9 9 6 5 9 11 16 15 24 32 25 26 29 18 18 15 9 6 3 2 7 8 13 17 16 21 26 32 38 46 57 58 58 45 41 36 31 27 19 17 19 24 23 20 24
3 12 9 7 6 7 9 3 8 9 32 28 23 37 42 29 15 10 7 8 10 3 12 10 8 9 19 20 18 14 24 34 47 48 38 42 50 49 39 38 40 36 23 25 22 27 26 21 25
8 4 10 8 1 5 5 3 6 8 14 8 38 35 25 14 11 10 14 8 5 2 3 2 3 10 8 12 14 24 31 31 40 45 41 46 49 44 40 44 38 35 26 20 24 25 25 26 28
7 4 3 7 4 8 4 5 7 14 17 18 25 25 20 17 24 17 12 13 11 5 7 11 14 15 15 18 25 27 32 32 35 40 46 38 41 51 50 50 41 36 35 28 27 18 20 23 25
9 5 10 7 7 6 3 9 11 18 14 22 30 25 16 20 18 13 7 4 12 22 21 20 14 17 22 27 32 28 37 33 42 42 36 46 50 45 42 40 43 35 37 31 31 21 20 20 15
4 7 9 9 9 3 8 9 10 16 29 33 25 18 8 9 12 12 7 10 19 18 17 15 20 23 23 28 24 39 37 33 39 43 41 51 50 46 45 44 40 35 33 30 27 20 22 19 15
Wind_Direction_500mb
118 96 96 70 58 57 144 282 315 134 69 67 94 103 93 48 27 177 151 178 183 182 177 172 177 179 237 351 39 40 44 41 48 55 59 58 45 43 14 282 231 227 232 221 221 230 231 224 203
124 97 88 73 85 80 267 253 134 115 121 96 76 71 56 60 106 140 146 157 166 171 175 182 174 189 204 16 36 38 22 14 18 16 30 42 34 15 317 287 272 264 261 257 257 251 232 225 228
107 108 77 84 116 172 190 189 124 130 141 117 112 74 66 108 124 152 157 153 155 160 164 168 175 178 123 41 20 360 334 325 331 344 345 347 342 334 316 303 288 277 271 270 263 253 249 245 234
144 84 84 95 179 233 187 104 126 121 85 82 108 79 78 182 167 155 150 154 159 159 156 156 146 114 73 37 7 350 332 321 315 313 313 313 310 307 304 301 301 299 293 281 273 265 261 258 247
53 53 57 61 291 258 248 123 120 99 103 106 104 106 84 170 158 150 148 155 161 151 141 126 107 93 64 31 10 354 333 319 311 310 311 314 312 313 313 321 317 304 295 288 281 277 271 262 256
63 66 43 2 268 194 76 136 102 94 107 108 103 99 104 139 145 141 141 140 148 137 119 108 102 71 42 7 358 355 351 338 321 315 307 302 306 324 331 342 349 338 329 317 294 277 270 266 264
102 82 196 267 255 106 121 123 126 140 150 126 132 99 150 159 154 143 119 120 125 124 123 112 102 74 33 1 355 358 6 7 6 354 3 69 349 306 324 342 355 1 359 355 351 338 307 274 262
98 62 331 262 222 175 166 117 118 120 72 141 126 163 177 168 158 149 152 140 140 139 152 127 86 118 40 13 350 351 352 351 10 12 306 325 322 329 328 347 350 349 356 359 1 2 357 335 302
90 118 273 229 192 157 144 108 84 109 127 117 220 171 163 150 165 170 174 177 180 183 159 143 153 9 27 11 351 331 323 339 353 357 340 310 305 296 297 327 317 335 314 339 350 357 337 332 327
88 140 233 209 215 154 164 134 138 117 97 81 108 133 147 159 168 170 164 158 158 151 138 153 161 249 317 345 324 301 316 338 341 344 325 348 311 281 267 286 289 312 314 330 329 323 324 333 307
237 204 72 303 172 155 161 133 111 121 69 154 141 144 163 176 173 167 165 169 171 159 174 176 165 212 319 278 251 289 301 313 312 310 319 336 327 325 295 284 272 275 267 305 304 293 300 298 314
113 284 275 306 141 133 97 108 80 53 160 150 151 155 153 165 170 178 182 172 169 182 213 224 208 48 26 28 265 245 273 303 297 295 303 319 318 321 309 280 235 256 297 314 316 317 290 305 344
167 313 20 285 80 109 114 85 107 109 137 147 156 163 170 178 185 194 200 183 180 209 224 234 222 275 351 356 0 303 279 4 298 294 305 315 314 326 340 293 242 281 295 316 314 321 304 297 305
163 161 256 43 65 144 120 138 102 155 148 152 164 172 186 197 204 217 221 210 209 204 232 233 241 262 292 321 341 325 340 343 337 278 288 296 304 317 334 325 252 274 307 316 310 304 309 313 313
119 172 250 63 167 131 124 84 139 154 160 163 177 183 200 214 223 234 240 235 232 224 221 238 257 256 279 298 322 320 327 333 317 315 316 299 304 312 324 331 309 276 289 305 308 287 306 307 296
100 62 350 263 137 159 170 206 161 163 162 167 181 197 207 215 227 237 238 233 237 229 224 235 249 259 265 276 299 304 309 311 303 274 298 298 305 307 310 322 301 294 282 301 291 289 296 296 304
5 183 223 309 144 134 151 107 181 171 168 176 187 204 209 216 229 232 235 237 242 239 234 243 245 252 264 276 285 279 279 284 293 286 269 282 297 297 299 315 296 306 281 294 289 298 293 302 308
179 240 238 217 238 162 123 180 161 169 190 189 198 209 220 206 211 216 220 232 249 248 245 255 250 245 251 261 269 269 268 275 297 313 276 270 279 292 300 301 287 291 292 293 294 297 295 300 311
171 201 200 248 232 84 180 135 173 185 192 202 206 216 230 233 205 234 232 233 240 246 245 244 244 249 267 270 264 268 280 269 275 301 298 292 286 294 300 286 271 273 278 287 295 288 293 294 314
181 173 252 311 228 86 128 139 128 195 205 191 207 221 233 242 237 247 246 239 250 274 279 260 261 269 281 282 273 275 274 269 270 271 290 292 286 292 298 290 284 276 279 282 295 284 295 301 312
65 194 242 242 94 98 126 161 193 236 258 249 238 241 236 240 242 246 253 248 270 269 277 282 275 280 275 285 286 276 267 285 276 275 287 297 290 291 291 292 297 277 273 280 284 284 292 300 301
146 236 65 354 44 229 194 201 217 275 299 271 233 227 238 238 216 228 223 244 268 265 260 266 271 275 284 297 308 295 264 290 289 276 284 288 283 290 291 293 283 280 273 280 272 275 286 292 295
206 211 134 239 335 90 69 89 250 160 245 250 144 142 153 146 128 136 174 233 176 188 116 338 279 278 299 304 312 310 279 286 288 275 276 280 284 284 288 279 271 282 277 280 267 276 282 286 290
147 8 26 17 71 18 239 130 233 191 198 159 109 122 133 142 136 139 157 143 129 157 310 314 349 2 321 312 322 320 312 303 304 286 272 270 272 280 275 280 280 282 281 275 272 279 288 275 286
68 46 346 353 1 244 136 38 245 196 165 168 152 153 148 153 155 148 159 175 159 135 167 15 9 14 360 342 316 312 318 329 322 314 283 271 276 269 270 277 279 275 281 279 287 296 289 275 276
283 140 156 229 236 280 18 197 274 181 191 169 173 158 147 146 157 173 138 164 141 10 347 336 16 13 341 336 336 328 327 320 321 316 306 279 267 266 264 268 272 273 277 272 283 284 284 278 284
297 285 183 146 329 93 174 12 356 231 240 180 159 162 149 159 169 161 149 148 239 321 167 215 276 296 296 308 325 325 323 319 328 334 306 292 271 269 260 272 263 264 263 270 269 268 275 268 287
180 187 358 13 273 270 207 212 230 195 221 158 160 158 147 143 150 144 140 154 159 228 230 236 267 300 318 326 329 340 338 325 328 329 325 313 281 272 271 267 260 256 260 260 258 265 272 274 287
348 24 59 116 129 162 226 253 231 185 168 154 152 155 155 149 161 164 169 270 294 288 279 274 286 316 319 320 324 323 329 320 329 329 318 314 304 275 264 252 251 256 253 246 256 245 268 276 263
216 153 115 119 286 208 155 258 348 133 146 154 161 168 185 197 197 209 241 277 299 270 263 284 308 308 304 311 319 323 324 319 322 326 324 324 308 277 255 262 256 246 247 241 248 244 254 264 258
Wind_Speed_850mb
15 15 8 12 11 9 3 10 5 15 8 15 22 24 23 18 5 6 31 25 28 31 30 21 13 6 3 5 8 10 13 11 9 9 7 7 4 3 2 1 1 3 5 7 8 9 10 9 10
9 8 20 13 10 5 3 10 15 17 37 52 42 30 26 9 16 31 33 31 29 30 27 21 14 8 4 3 9 10 9 7 6 5 5 4 4 3 3 4 5 6 8 10 12 12 11 12 12
21 16 10 8 7 8 7 15 23 46 49 15 17 22 9 10 29 35 32 36 31 31 26 20 14 8 3 5 7 7 6 6 5 5 6 7 8 8 8 9 9 10 12 15 17 18 18 17 16
10 7 13 8 10 6 6 11 41 28 27 26 35 19 12 11 25 33 39 36 32 28 24 17 12 8 7 7 8 11 13 12 11 10 9 9 10 12 13 13 16 17 18 18 21 21 22 23 23
11 11 9 7 4 7 7 32 27 14 15 16 9 10 8 18 31 37 35 31 27 24 19 16 13 9 7 9 13 18 19 19 18 15 14 14 15 15 15 14 16 18 22 24 25 24 24 26 26
11 8 9 5 7 5 7 33 32 22 30 36 31 20 8 37 39 37 30 23 24 24 23 18 12 9 7 10 18 27 25 21 18 16 14 11 9 9 11 13 15 21 23 23 24 26 28 28 28
12 7 5 4 12 6 17 35 25 29 26 12 39 10 29 39 36 33 30 30 29 25 19 15 10 8 11 12 20 25 26 24 23 15 8 6 3 9 11 16 21 26 30 23 19 15 15 22 30
13 9 1 4 9 9 8 29 38 30 13 39 27 16 20 50 38 34 31 29 27 25 17 12 4 1 5 6 20 17 20 22 24 18 8 8 7 10 15 25 20 21 19 20 17 16 17 14 13
10 6 6 9 12 11 26 12 12 17 32 10 10 33 44 53 52 49 41 31 28 26 16 8 4 1 3 8 12 15 14 15 18 19 7 14 17 17 12 15 21 14 12 16 15 15 18 13 13
7 2 10 10 11 13 27 26 25 13 19 19 41 49 54 57 59 49 47 43 35 31 22 14 12 6 7 6 8 12 4 9 14 15 16 21 16 13 14 18 22 11 16 14 16 16 18 15 19
4 10 8 28 27 44 32 29 8 37 8 28 64 49 47 61 56 55 50 44 39 31 22 13 7 2 3 6 17 16 11 10 10 12 22 20 21 24 29 24 25 16 13 19 21 21 26 28 27
3 16 13 33 40 32 13 18 16 4 15 39 61 53 54 62 61 60 49 40 38 26 25 12 6 4 9 11 6 19 14 17 19 23 23 25 30 33 26 21 8 10 12 17 26 31 25 21 9
12 10 9 18 18 34 40 25 22 34 49 57 48 47 49 49 47 44 42 37 31 34 25 19 12 6 11 16 15 7 5 16 19 22 23 27 29 35 22 16 14 17 14 21 29 27 12 16 19
21 16 19 19 24 27 34 29 14 20 55 51 44 40 40 42 40 37 41 38 45 35 31 27 21 16 16 17 22 18 9 15 21 21 24 24 32 32 26 20 16 17 11 21 29 23 24 26 28
14 10 5 5 5 10 42 2 10 61 58 50 41 34 32 36 35 35 37 38 41 43 36 33 29 23 20 20 23 17 12 14 18 19 24 28 32 27 32 35 31 25 16 23 32 21 28 32 35
7 11 6 15 13 16 18 8 32 54 52 47 40 35 37 35 32 33 35 34 38 43 43 34 32 29 28 28 22 19 17 21 24 26 24 25 26 25 38 43 28 30 28 24 22 24 31 40 42
12 7 9 16 10 12 6 9 36 50 44 49 45 44 38 31 28 30 31 38 37 44 48 42 36 39 32 38 35 26 23 27 26 24 28 28 29 34 39 41 25 28 27 27 25 28 34 40 37
11 8 7 13 9 19 12 7 35 38 34 45 43 40 40 30 19 21 17 22 32 39 44 46 41 44 39 48 51 41 38 30 29 36 26 31 32 37 35 33 26 31 28 29 29 38 35 42 37
13 10 14 13 16 5 15 17 28 54 44 32 40 46 48 32 15 26 25 25 25 27 33 36 39 51 38 46 63 56 51 40 29 37 32 37 39 39 44 35 30 26 31 34 40 32 38 35 34
17 7 11 18 6 9 16 19 6 25 19 20 33 51 53 42 28 27 30 27 21 16 23 33 40 46 44 39 52 55 48 38 34 31 40 44 45 44 36 31 35 33 34 32 36 30 31 35 33
5 13 8 15 18 19 27 11 3 4 16 22 26 49 50 50 31 31 37 32 20 26 21 30 32 33 34 41 42 42 43 43 46 34 36 36 40 44 40 37 37 38 36 38 35 32 34 34 28
7 6 5 13 8 7 18 7 5 5 11 17 23 37 45 33 19 24 24 20 15 17 19 19 16 16 14 21 33 34 50 45 47 40 43 45 48 48 44 50 37 35 35 38 33 34 29 31 30
13 12 4 7 7 7 6 11 5 6 12 15 9 9 27 16 13 12 6 4 6 5 3 1 4 8 12 15 21 30 39 56 53 48 46 43 45 50 47 32 30 30 31 31 35 30 27 28 27
9 3 14 12 8 7 8 10 8 10 12 9 17 29 29 18 18 15 8 11 13 5 3 4 2 5 4 12 19 23 31 36 47 52 57 55 43 43 37 33 34 29 26 29 27 23 24 21 24
16 13 8 10 9 9 6 5 9 11 16 15 24 32 25 26 29 18 18 15 9 6 3 2 7 8 13 17 16 21 26 32 38 46 57 58 58 45 41 36 31 27 19 17 19 24 23 20 24
3 12 9 7 6 7 9 3 8 9 32 28 23 37 42 29 15 10 7 8 10 3 12 10 8 9 19 20 18 14 24 34 47 48 38 42 50 49 39 38 40 36 23 25 22 27 26 21 25
8 4 10 8 1 5 5 3 6 8 14 8 38 35 25 14 11 10 14 8 5 2 3 2 3 10 8 12 14 24 31 31 40 45 41 46 49 44 40 44 38 35 26 20 24 25 25 26 28
7 4 3 7 4 8 4 5 7 14 17 18 25 25 20 17 24 17 12 13 11 5 7 11 14 15 15 18 25 27 32 32 35 40 46 38 41 51 50 50 41 36 35 28 27 18 20 23 25
9 5 10 7 7 6 3 9 11 18 14 22 30 25 16 20 18 13 7 4 12 22 21 20 14 17 22 27 32 28 37 33 42 42 36 46 50 45 42 40 43 35 37 31 31 21 20 20 15
4 7 9 9 9 3 8 9 10 16 29 33 25 18 8 9 12 12 7 10 19 18 17 15 20 23 23 28 24 39 37 33 39 43 41 51 50 46 45 44 40 35 33 30 27 20 22 19 15
Wind_Direction_850mb
118 96 96 70 58 57 144 282 315 134 69 67 94 103 93 48 27 177 151 178 183 182 177 172 177 179 237 351 39 40 44 41 48 55 59 58 45 43 14 282 231 227 232 221 221 230 231 224 203
124 97 88 73 85 80 267 253 134 115 121 96 76 71 56 60 106 140 146 157 166 171 175 182 174 189 204 16 36 38 22 14 18 16 30 42 34 15 317 287 272 264 261 257 257 251 232 225 228
107 108 77 84 116 172 190 189 124 130 141 117 112 74 66 108 124 152 157 153 155 160 164 168 175 178 123 41 20 360 334 325 331 344 345 347 342 334 316 303 288 277 271 270 263 253 249 245 234
144 84 84 95 179 233 187 104 126 121 85 82 108 79 78 182 167 155 150 154 159 159 156 156 146 114 73 37 7 350 332 321 315 313 313 313 310 307 304 301 301 299 293 281 273 265 261 258 247
53 53 57 61 291 258 248 123 120 99 103 106 104 106 84 170 158 150 148 155 161 151 141 126 107 93 64 31 10 354 333 319 311 310 311 314 312 313 313 321 317 304 295 288 281 277 271 262 256
63 66 43 2 268 194 76 136 102 94 107 108 103 99 104 139 145 141 141 140 148 137 119 108 102 71 42 7 358 355 351 338 321 315 307 302 306 324 331 342 349 338 329 317 294 277 270 266 264
102 82 196 267 255 106 121 123 126 140 150 126 132 99 150 159 154 143 119 120 125 124 123 112 102 74 33 1 355 358 6 7 6 354 3 69 349 306 324 342 355 1 359 355 351 338 307 274 262
98 62 331 262 222 175 166 117 118 120 72 141 126 163 177 168 158 149 152 140 140 139 152 127 86 118 40 13 350 351 352 351 10 12 306 325 322 329 328 347 350 349 356 359 1 2 357 335 302
90 118 273 229 192 157 144 108 84 109 127 117 220 171 163 150 165 170 174 177 180 183 159 143 153 9 27 11 351 331 323 339 353 357 340 310 305 296 297 327 317 335 314 339 350 357 337 332 327
88 140 233 209 215 154 164 134 138 117 97 81 108 133 147 159 168 170 164 158 158 151 138 153 161 249 317 345 324 301 316 338 341 344 325 348 311 281 267 286 289 312 314 330 329 323 324 333 307
237 204 72 303 172 155 161 133 111 121 69 154 141 144 163 176 173 167 165 169 171 159 174 176 165 212 319 278 251 289 301 313 312 310 319 336 327 325 295 284 272 275 267 305 304 293 300 298 314
113 284 275 306 141 133 97 108 80 53 160 150 151 155 153 165 170 178 182 172 169 182 213 224 208 48 26 28 265 245 273 303 297 295 303 319 318 321 309 280 235 256 297 314 316 317 290 305 344
167 313 20 285 80 109 114 85 107 109 137 147 156 163 170 178 185 194 200 183 180 209 224 234 222 275 351 356 0 303 279 4 298 294 305 315 314 326 340 293 242 281 295 316 314 321 304 297 305
163 161 256 43 65 144 120 138 102 155 148 152 164 172 186 197 204 217 221 210 209 204 232 233 241 262 292 321 341 325 340 343 337 278 288 296 304 317 334 325 252 274 307 316 310 304 309 313 313
119 172 250 63 167 131 124 84 139 154 160 163 177 183 200 214 223 234 240 235 232 224 221 238 257 256 279 298 322 320 327 333 317 315 316 299 304 312 324 331 309 276 289 305 308 287 306 307 296
100 62 350 263 137 159 170 206 161 163 162 167 181 197 207 215 227 237 238 233 237 229 224 235 249 259 265 276 299 304 309 311 303 274 298 298 305 307 310 322 301 294 282 301 291 289 296 296 304
5 183 223 309 144 134 151 107 181 171 168 176 187 204 209 216 229 232 235 237 242 239 234 243 245 252 264 276 285 279 279 284 293 286 269 282 297 297 299 315 296 306 281 294 289 298 293 302 308
179 240 238 217 238 162 123 180 161 169 190 189 198 209 220 206 211 216 220 232 249 248 245 255 250 245 251 261 269 269 268 275 297 313 276 270 279 292 300 301 287 291 292 293 294 297 295 300 311
171 201 200 248 232 84 180 135 173 185 192 202 206 216 230 233 205 234 232 233 240 246 245 244 244 249 267 270 264 268 280 269 275 301 298 292 286 294 300 286 271 273 278 287 295 288 293 294 314
181 173 252 311 228 86 128 139 128 195 205 191 207 221 233 242 237 247 246 239 250 274 279 260 261 269 281 282 273 275 274 269 270 271 290 292 286 292 298 290 284 276 279 282 295 284 295 301 312
65 194 242 242 94 98 126 161 193 236 258 249 238 241 236 240 242 246 253 248 270 269 277 282 275 280 275 285 286 276 267 285 276 275 287 297 290 291 291 292 297 277 273 280 284 284 292 300 301
146 236 65 354 44 229 194 201 217 275 299 271 233 227 238 238 216 228 223 244 268 265 260 266 271 275 284 297 308 295 264 290 289 276 284 288 283 290 291 293 283 280 273 280 272 275 286 292 295
206 211 134 239 335 90 69 89 250 160 245 250 144 142 153 146 128 136 174 233 176 188 116 338 279 278 299 304 312 310 279 286 288 275 276 280 284 284 288 279 271 282 277 280 267 276 282 286 290
147 8 26 17 71 18 239 130 233 191 198 159 109 122 133 142 136 139 157 143 129 157 310 314 349 2 321 312 322 320 312 303 304 286 272 270 272 280 275 280 280 282 281 275 272 279 288 275 286
68 46 346 353 1 244 136 38 245 196 165 168 152 153 148 153 155 148 159 175 159 135 167 15 9 14 360 342 316 312 318 329 322 314 283 271 276 269 270 277 279 275 281 279 287 296 289 275 276
283 140 156 229 236 280 18 197 274 181 191 169 173 158 147 146 157 173 138 164 141 10 347 336 16 13 341 336 336 328 327 320 321 316 306 279 267 266 264 268 272 273 277 272 283 284 284 278 284
297 285 183 146 329 93 174 12 356 231 240 180 159 162 149 159 169 161 149 148 239 321 167 215 276 296 296 308 325 325 323 319 328 334 306 292 271 269 260 272 263 264 263 270 269 268 275 268 287
180 187 358 13 273 270 207 212 230 195 221 158 160 158 147 143 150 144 140 154 159 228 230 236 267 300 318 326 329 340 338 325 328 329 325 313 281 272 271 267 260 256 260 260 258 265 272 274 287
348 24 59 116 129 162 226 253 231 185 168 154 152 155 155 149 161 164 169 270 294 288 279 274 286 316 319 320 324 323 329 320 329 329 318 314 304 275 264 252 251 256 253 246 256 245 268 276 263
216 153 115 119 286 208 155 258 348 133 146 154 161 168 185 197 197 209 241 277 299 270 263 284 308 308 304 311 319 323 324 319 322 326 324 324 308 277 255 262 256 246 247 241 248 244 254 264 258